[[{"header":{"parameterUnit":"m.s-1","parameterCategory":2,"la1":30.2991,"la2":30.254,"lo1":-89.0895,"lo2":-89.0444,"dy":0.0017,"dx":0.0017,"nx":28,"ny":28,"refTime":"2025-05-14T21:00:00:Z","depth":"0","parameterNumber":2,"parameterNumberName":"U-component_of_CURRENTS"},"data":[0,0,0,0,0,0,0,0,0,0,0,0,0,0,0,0,0,0,0,0,0,0,0,0,0,0,0,0,0,0,0,0,0,0,0,0,0,0,0,0,0,0,0,0,0,0,0,0,0,0,0,0,0,0,0,0,0,0,0.2336,0.2336,0,0.2319,0.2319,0.2318,0.2299,0.2299,0.2298,0.2298,0.2274,0.2274,0.2273,0,0,0,0,0,0,0,0,0,0,0,0,0,0.2356,0.2355,0.2336,0.2336,0.2336,0.2319,0.2319,0.2318,0.2299,0.2299,0.2298,0.2298,0.2275,0.2274,0.2273,0,0,0,0,0,0,0,0,0,0,0,0,0,0.2342,0.2355,0.2336,0.2325,0.2325,0.2319,0.2319,0.2318,0.2299,0.2299,0.2298,0.2298,0.2275,0.2274,0.2273,0.2272,0,0,0.2271,0.2271,0,0,0,0,0,0,0,0,0.2343,0.2341,0.2327,0.2326,0.2325,0.2312,0.2317,0.2303,0.2299,0.2306,0.2298,0.2298,0.2288,0.2286,0.2281,0.2271,0.227,0.2271,0.227,0.227,0.227,0,0,0,0,0,0,0,0.2344,0.2342,0.2327,0.2327,0.2326,0.2323,0.2321,0.2314,0.2297,0.2306,0.2305,0.2306,0.2287,0.2281,0.228,0.2269,0.2271,0.227,0.227,0.2269,0.2297,0.2298,0,0,0,0,0,0,0.235,0.2343,0.2328,0.2327,0.2336,0.2323,0.2321,0.2315,0.2297,0.2295,0.2306,0.2305,0.2283,0.2281,0.2279,0.23,0.227,0.2269,0.2269,0.2296,0.2297,0.2298,0,0,0,0,0,0,0.235,0.2348,0.2329,0.2336,0.2334,0.2323,0.2317,0.2315,0.2314,0.2298,0.2295,0.2309,0.2283,0.228,0.2277,0.2298,0.2269,0.2268,0.2294,0.2296,0.2298,0.2327,0,0,0,0,0,0,0.2351,0.2348,0.2348,0.2337,0.2334,0.2335,0.2318,0.2315,0.2316,0.2315,0.2299,0.2296,0.2282,0.2278,0.2276,0.2297,0.2268,0.2293,0.2295,0.2297,0.2325,0.233,0.2334,0,0,0,0,0,0.2351,0.235,0.2347,0.2346,0.2332,0.2336,0.2334,0.2324,0.2317,0.2322,0.2308,0.2297,0.2292,0.2278,0.2276,0.2296,0.2292,0.2294,0.2297,0.2323,0.2329,0.2334,0,0,0,0,0,0,0.2356,0.2347,0.2345,0.234,0.2344,0.2333,0.2334,0.233,0.2323,0.2319,0.2301,0.2298,0.2313,0.2299,0.2285,0.2314,0.2295,0.2297,0.2316,0.2321,0.2326,0.2376,0.2267,0,0,0,0,0,0.2358,0.2354,0.2352,0.235,0.2352,0.2345,0.2345,0.2342,0.2334,0.233,0.2319,0.2314,0.2322,0.2315,0.232,0.2321,0.2354,0.2338,0.2343,0.2347,0.2388,0.247,0.2487,0.2307,0.2307,0.2307,0,0,0.2357,0.2355,0.2351,0.2351,0.2349,0.2354,0.2344,0.2348,0.2354,0.2329,0.2329,0.2333,0.233,0.2341,0.2346,0.2328,0.2405,0.2351,0.2354,0.2394,0.2475,0.2493,0.2508,0.2309,0.2309,0.2308,0,0,0.2356,0.2354,0.2352,0.2359,0.2364,0.2364,0.2369,0.2365,0.2366,0.2363,0.2364,0.239,0.2364,0.2391,0.2394,0.2431,0.2437,0.2418,0.247,0.2548,0.2564,0.2579,0.2599,0.2616,0.2409,0.2409,0.2409,0,0.2357,0.235,0.2354,0.2359,0.2364,0.2371,0.2375,0.2382,0.2378,0.2391,0.2366,0.2407,0.24,0.2455,0.2468,0.2446,0.247,0.2441,0.2556,0.2572,0.2586,0.2604,0.2623,0.2411,0.2411,0.2411,0.2411,0,0.2353,0.2353,0.2355,0.2361,0.2373,0.2378,0.2393,0.2406,0.2402,0.2413,0.2463,0.2472,0.2505,0.2503,0.2491,0.2593,0.2567,0.256,0.2543,0.2607,0.262,0.2638,0.2414,0.2413,0.2412,0.2412,0,0,0.2335,0.2347,0.2348,0.2347,0.2373,0.2375,0.2406,0.2434,0.2464,0.2479,0.2534,0.2565,0.2595,0.2608,0.2616,0.2683,0.2783,0.2666,0.2669,0.2689,0.2922,0.2764,0.2767,0.2794,0.2799,0.2802,0.2873,0,0.2328,0.233,0.2344,0.2349,0.2351,0.238,0.2409,0.2444,0.2474,0.2533,0.259,0.2644,0.2626,0.2658,0.2726,0.2787,0.2841,0.2763,0.2857,0.286,0.2716,0.2788,0.2687,0.2732,0.2891,0.2894,0.2896,0,0.2314,0.2319,0.232,0.234,0.2345,0.2358,0.2414,0.2443,0.2542,0.2575,0.2663,0.2713,0.2832,0.2806,0.2951,0.29,0.2926,0.2959,0.2962,0.2832,0.2738,0.2704,0.2759,0.2711,0.2924,0.2922,0.292,0,0.2286,0.2298,0.2294,0.23,0.2333,0.2347,0.2374,0.2455,0.2504,0.2631,0.2699,0.2819,0.2892,0.2985,0.3035,0.3013,0.318,0.3146,0.3026,0.3012,0.2958,0.2931,0.299,0.3266,0.3266,0.3266,0.3265,0,0.2265,0.2258,0.2277,0.2274,0.2286,0.2324,0.2367,0.242,0.2539,0.2615,0.273,0.282,0.295,0.3044,0.3086,0.3101,0.3214,0.3068,0.3043,0.2954,0.2928,0.2906,0.2862,0.3268,0.3268,0.3267,0.3267,0,0.2226,0.2238,0.2232,0.2259,0.2268,0.2278,0.2353,0.2398,0.2518,0.2637,0.2694,0.2853,0.2949,0.3039,0.3169,0.3132,0.3074,0.3156,0.3005,0.296,0.2748,0.2708,0.2526,0.2477,0.304,0.3036,0.3034,0,0.2203,0.2197,0.221,0.2208,0.2214,0.2242,0.2271,0.2376,0.2446,0.2639,0.2705,0.2838,0.2901,0.3007,0.2996,0.3023,0.2955,0.2913,0.2852,0.2746,0.2688,0.2487,0.2449,0.2786,0.2781,0.2777,0.2774,0,0.2163,0.2167,0.2163,0.2164,0.2174,0.2192,0.2251,0.2307,0.2444,0.2544,0.2667,0.2736,0.2816,0.2786,0.2789,0.2795,0.273,0.2829,0.2813,0.2572,0.2275,0.2212,0.269,0.2742,0.2745,0.2747,0.2749,0.2751,0.2131,0.2117,0.2115,0.2105,0.2117,0.213,0.2135,0.2213,0.2291,0.2411,0.2528,0.2572,0.2627,0.2604,0.2589,0.2486,0.244,0.2428,0.2412,0.2234,0.2111,0.2462,0.2414,0.2415,0.2416,0.2417,0.2418,0,0.2082,0.2068,0.2058,0.2038,0.2019,0.2054,0.2108,0.2106,0.2143,0.2242,0.2303,0.2334,0.2298,0.2333,0.2271,0.2151,0.2032,0.2078,0.1874,0.1886,0.232,0.2238,0.2037,0.2037,0.2037,0.2037,0.2037,0.2037,0.2055,0.2019,0.2005,0.1941,0.1929,0.1897,0.191,0.1913,0.1962,0.1963,0.1972,0.2025,0.2105,0.2025,0.1942,0.1912,0.1781,0.1555,0.1598,0.2019,0.2054,0.2087,0.2005,0.1758,0.1758,0.1097,0.1092,0.1088]},{"header":{"parameterUnit":"m.s-1","parameterCategory":2,"la1":30.2991,"la2":30.254,"lo1":-89.0895,"lo2":-89.0444,"dy":0.0017,"dx":0.0017,"nx":28,"ny":28,"refTime":"2025-05-14T21:00:00:Z","depth":"0","parameterNumber":3,"parameterNumberName":"V-component_of_CURRENTS"},"data":[0,0,0,0,0,0,0,0,0,0,0,0,0,0,0,0,0,0,0,0,0,0,0,0,0,0,0,0,0,0,0,0,0,0,0,0,0,0,0,0,0,0,0,0,0,0,0,0,0,0,0,0,0,0,0,0,0,0,0.0352,0.0352,0,0.0327,0.0327,0.0327,0.0308,0.0308,0.0307,0.0307,0.0265,0.0265,0.0264,0,0,0,0,0,0,0,0,0,0,0,0,0,0.0351,0.0351,0.0352,0.0352,0.0352,0.0327,0.0327,0.0327,0.0308,0.0308,0.0307,0.0307,0.0266,0.0265,0.0263,0,0,0,0,0,0,0,0,0,0,0,0,0,0.0341,0.0351,0.0352,0.034,0.0338,0.0328,0.0327,0.0327,0.0308,0.0308,0.0307,0.0307,0.0266,0.0265,0.0263,0.0258,0,0,0.0259,0.0258,0,0,0,0,0,0,0,0,0.0341,0.0341,0.0342,0.0341,0.0339,0.0321,0.0311,0.0303,0.0308,0.0319,0.0307,0.0307,0.0283,0.028,0.0275,0.0256,0.0254,0.0259,0.0258,0.0257,0.0257,0,0,0,0,0,0,0,0.0342,0.0342,0.0342,0.0342,0.034,0.0324,0.0323,0.0309,0.0302,0.0318,0.0317,0.0315,0.0282,0.0277,0.0274,0.0254,0.0259,0.0257,0.0256,0.0256,0.0233,0.0234,0,0,0,0,0,0,0.0348,0.0342,0.0343,0.0341,0.034,0.0325,0.0323,0.0327,0.0302,0.0298,0.0315,0.0314,0.0279,0.0276,0.0273,0.0281,0.0257,0.0256,0.0255,0.0233,0.0233,0.0234,0,0,0,0,0,0,0.0348,0.0349,0.0344,0.0341,0.034,0.0325,0.0329,0.0326,0.0323,0.03,0.0296,0.0315,0.0279,0.0275,0.0266,0.0278,0.0255,0.0254,0.0233,0.0233,0.0234,0.0287,0,0,0,0,0,0,0.0349,0.0349,0.0353,0.0342,0.034,0.0345,0.0329,0.0326,0.0322,0.0321,0.0299,0.0295,0.0279,0.0268,0.0264,0.0276,0.0252,0.0232,0.0233,0.0234,0.0285,0.0289,0.0293,0,0,0,0,0,0.0349,0.0359,0.0353,0.0353,0.0346,0.0345,0.0343,0.0331,0.0323,0.0326,0.031,0.0296,0.0269,0.0267,0.0262,0.0274,0.0232,0.0233,0.0233,0.0283,0.0288,0.0293,0,0,0,0,0,0,0.0359,0.0358,0.0351,0.036,0.0355,0.0342,0.0343,0.0335,0.0325,0.0323,0.0299,0.0294,0.0291,0.0273,0.0272,0.0268,0.0248,0.0248,0.0287,0.0292,0.0296,0.0319,0.0251,0,0,0,0,0,0.0364,0.0372,0.0364,0.0371,0.037,0.0356,0.0353,0.0348,0.0337,0.0333,0.0316,0.0299,0.0289,0.0284,0.027,0.0268,0.0267,0.0272,0.0276,0.028,0.0294,0.0315,0.0323,0.0236,0.0236,0.0236,0,0,0.0368,0.0369,0.0372,0.0374,0.0367,0.0373,0.0354,0.0356,0.0362,0.033,0.033,0.0313,0.0291,0.0291,0.0288,0.0279,0.0299,0.028,0.0284,0.0297,0.0317,0.0325,0.0333,0.0236,0.0236,0.0236,0,0,0.0385,0.0383,0.0395,0.0395,0.0393,0.0388,0.0391,0.0381,0.0377,0.0375,0.0355,0.0353,0.0326,0.0325,0.0318,0.0336,0.032,0.0322,0.0363,0.0383,0.0391,0.0398,0.0393,0.0399,0.0325,0.0325,0.0326,0,0.039,0.0408,0.0398,0.0411,0.0416,0.0397,0.0414,0.0407,0.0396,0.0401,0.0381,0.0372,0.0349,0.0366,0.0367,0.0349,0.0346,0.0348,0.0391,0.0398,0.0404,0.0397,0.0403,0.0328,0.0328,0.0328,0.0327,0,0.0418,0.0431,0.0438,0.045,0.0453,0.0465,0.0457,0.0459,0.0449,0.0444,0.0455,0.0433,0.0435,0.042,0.0395,0.0428,0.0406,0.0395,0.0384,0.0417,0.0406,0.0412,0.0332,0.0331,0.033,0.033,0,0,0.0434,0.0456,0.0458,0.0475,0.0478,0.0487,0.0498,0.051,0.0532,0.0514,0.0551,0.0522,0.0518,0.051,0.0488,0.0496,0.0523,0.0463,0.0463,0.0467,0.0551,0.052,0.0522,0.0521,0.0522,0.0523,0.0521,0,0.046,0.05,0.05,0.0534,0.0555,0.0547,0.0564,0.057,0.0572,0.06,0.0589,0.0611,0.055,0.0566,0.0563,0.054,0.0542,0.0524,0.0511,0.051,0.0487,0.053,0.0588,0.059,0.0526,0.0527,0.0527,0,0.0489,0.0516,0.0557,0.0593,0.0601,0.0614,0.065,0.0667,0.0691,0.0698,0.0716,0.0709,0.0722,0.0676,0.0654,0.0644,0.0604,0.0577,0.0576,0.0538,0.0491,0.0549,0.0602,0.0623,0.0536,0.0535,0.0534,0,0.0517,0.0555,0.0594,0.0604,0.0637,0.0654,0.0674,0.0697,0.0739,0.0778,0.0825,0.0814,0.0841,0.0795,0.0719,0.0697,0.0695,0.066,0.0593,0.0589,0.0633,0.063,0.0718,0.0659,0.0659,0.0659,0.0659,0,0.055,0.058,0.0611,0.0632,0.0685,0.0694,0.0754,0.0772,0.0836,0.0915,0.0891,0.0959,0.0875,0.0857,0.0769,0.0698,0.0734,0.0616,0.0599,0.0648,0.0647,0.066,0.0636,0.0659,0.0659,0.0659,0.0659,0,0.0572,0.0591,0.0642,0.0684,0.07,0.074,0.0815,0.087,0.0918,0.1032,0.1063,0.1081,0.1053,0.095,0.0877,0.0776,0.0713,0.0666,0.0712,0.07,0.0641,0.0617,0.0655,0.067,0.0601,0.06,0.06,0,0.0588,0.0616,0.0679,0.0715,0.0734,0.0794,0.0846,0.0906,0.099,0.1116,0.1196,0.1199,0.1222,0.1081,0.0914,0.0763,0.0729,0.0695,0.0664,0.0665,0.0627,0.0617,0.0627,0.0736,0.0737,0.0737,0.0738,0,0.0619,0.0639,0.0682,0.0759,0.0816,0.0892,0.0982,0.1069,0.1171,0.1278,0.141,0.1438,0.1311,0.1205,0.0974,0.085,0.0733,0.0699,0.0718,0.0759,0.0742,0.074,0.0685,0.0743,0.0742,0.0742,0.0741,0.0741,0.0639,0.0676,0.0733,0.0807,0.0879,0.0991,0.1081,0.1208,0.1362,0.1553,0.1557,0.1643,0.1491,0.1196,0.1025,0.0802,0.0768,0.075,0.0724,0.0716,0.0735,0.0667,0.0689,0.0689,0.0688,0.0688,0.0687,0,0.0665,0.0708,0.0778,0.0872,0.096,0.0998,0.1175,0.1296,0.1497,0.1666,0.1774,0.1811,0.1602,0.1366,0.1064,0.0905,0.084,0.0811,0.0852,0.0861,0.0836,0.0848,0.0887,0.0887,0.0887,0.0887,0.0887,0.0887,0.0679,0.0743,0.0781,0.0918,0.0994,0.1145,0.126,0.1462,0.1633,0.1886,0.2015,0.2091,0.202,0.142,0.1113,0.0999,0.0958,0.0885,0.0851,0.0872,0.0866,0.086,0.0871,0.0914,0.0914,0.0943,0.0943,0.0943]}],[{"header":{"parameterUnit":"m.s-1","parameterCategory":2,"la1":30.2991,"la2":30.254,"lo1":-89.0895,"lo2":-89.0444,"dy":0.0017,"dx":0.0017,"nx":28,"ny":28,"refTime":"2025-05-14T21:00:00:Z","depth":"2","parameterNumber":2,"parameterNumberName":"U-component_of_CURRENTS"},"data":[0,0,0,0,0,0,0,0,0,0,0,0,0,0,0,0,0,0,0,0,0,0,0,0,0,0,0,0,0,0,0,0,0,0,0,0,0,0,0,0,0,0,0,0,0,0,0,0,0,0,0,0,0,0,0,0,0,0,0.2251,0.2251,0,0.2235,0.2235,0.2235,0.2219,0.2219,0.2219,0.2219,0.2199,0.2199,0.2198,0,0,0,0,0,0,0,0,0,0,0,0,0,0.227,0.2269,0.2251,0.2251,0.2251,0.2235,0.2235,0.2234,0.2219,0.2219,0.2219,0.2219,0.2199,0.2199,0.2198,0,0,0,0,0,0,0,0,0,0,0,0,0,0.2257,0.2269,0.2251,0.2243,0.2242,0.2235,0.2235,0.2234,0.2219,0.2219,0.2219,0.2219,0.2199,0.2199,0.2198,0.2194,0,0,0.2196,0.2195,0,0,0,0,0,0,0,0,0.2258,0.2256,0.2244,0.2243,0.2242,0.2231,0.2234,0.2221,0.2219,0.2226,0.2219,0.2219,0.2211,0.2209,0.2203,0.2193,0.2192,0.2196,0.2195,0.2195,0.2194,0,0,0,0,0,0,0,0.2258,0.2256,0.2243,0.2244,0.2243,0.2241,0.2239,0.2232,0.2217,0.2225,0.2225,0.2226,0.221,0.2204,0.2203,0.2192,0.2196,0.2195,0.2194,0.2194,0.2219,0.222,0,0,0,0,0,0,0.2264,0.2257,0.2243,0.2242,0.2252,0.2241,0.2238,0.2233,0.2217,0.2215,0.2226,0.2225,0.2205,0.2204,0.2202,0.2225,0.2195,0.2194,0.2194,0.2218,0.222,0.2221,0,0,0,0,0,0,0.2264,0.2263,0.2244,0.2251,0.2249,0.2241,0.2235,0.2233,0.2234,0.2218,0.2216,0.2231,0.2205,0.2203,0.2201,0.2223,0.2194,0.2193,0.2217,0.2219,0.222,0.2252,0,0,0,0,0,0,0.2265,0.2263,0.2263,0.2252,0.2249,0.225,0.2235,0.2233,0.2236,0.2235,0.2221,0.2219,0.2205,0.2202,0.22,0.2221,0.2192,0.2215,0.2218,0.222,0.225,0.2255,0.2259,0,0,0,0,0,0.2265,0.2264,0.2263,0.2262,0.2249,0.2251,0.225,0.2242,0.2236,0.2242,0.2229,0.222,0.2215,0.2202,0.22,0.2221,0.2214,0.2217,0.2219,0.2248,0.2254,0.2259,0,0,0,0,0,0,0.2271,0.2263,0.2261,0.2257,0.226,0.2249,0.2252,0.2249,0.2243,0.2241,0.2223,0.222,0.2236,0.2222,0.2208,0.2237,0.2218,0.222,0.224,0.2246,0.2251,0.2296,0.2192,0,0,0,0,0,0.2274,0.2271,0.2268,0.2266,0.2269,0.2263,0.2263,0.2261,0.2254,0.2251,0.2241,0.2236,0.2244,0.2238,0.2242,0.2244,0.2274,0.2261,0.2266,0.227,0.2306,0.2386,0.2402,0.2229,0.2229,0.2229,0,0,0.2274,0.2271,0.2268,0.2268,0.2267,0.2271,0.2263,0.2268,0.2273,0.225,0.2252,0.2255,0.2251,0.2262,0.2268,0.2251,0.2325,0.2273,0.2276,0.2312,0.239,0.2407,0.2423,0.2231,0.2231,0.223,0,0,0.2273,0.2273,0.227,0.2277,0.2283,0.2283,0.2289,0.2285,0.2287,0.2285,0.2286,0.2311,0.2287,0.2311,0.2314,0.2349,0.2355,0.2339,0.2388,0.2463,0.2479,0.2493,0.2511,0.2526,0.2331,0.2331,0.2331,0,0.2276,0.2269,0.2273,0.2278,0.2283,0.229,0.2294,0.2301,0.2298,0.2311,0.229,0.2327,0.2321,0.2372,0.2384,0.2364,0.2388,0.236,0.2471,0.2486,0.25,0.2516,0.2533,0.2333,0.2333,0.2332,0.2332,0,0.2272,0.2272,0.2275,0.2281,0.2292,0.2298,0.2311,0.2324,0.2323,0.2333,0.2381,0.239,0.242,0.2419,0.2407,0.2505,0.2481,0.2475,0.2459,0.252,0.2531,0.2548,0.2335,0.2335,0.2334,0.2334,0,0,0.2257,0.2267,0.2269,0.2268,0.2293,0.2295,0.2324,0.235,0.2379,0.2394,0.2448,0.2476,0.2506,0.2518,0.2526,0.2589,0.2686,0.2575,0.2578,0.2597,0.2821,0.2669,0.2673,0.2701,0.2705,0.2709,0.2773,0,0.2251,0.2253,0.2265,0.227,0.2271,0.2298,0.2325,0.2359,0.2388,0.2446,0.2499,0.2554,0.2535,0.2568,0.2632,0.2689,0.2741,0.2668,0.2758,0.276,0.2623,0.2692,0.245,0.2477,0.2789,0.2792,0.2794,0,0.2238,0.2242,0.2244,0.2261,0.2266,0.2278,0.233,0.2357,0.2452,0.2486,0.2571,0.2621,0.2733,0.271,0.2845,0.2798,0.2824,0.2854,0.2857,0.273,0.2643,0.2476,0.2497,0.2823,0.2821,0.2819,0.2817,0,0.2212,0.2222,0.2219,0.2225,0.2255,0.2268,0.2293,0.237,0.2417,0.2541,0.2608,0.2723,0.2795,0.2882,0.2928,0.2907,0.3062,0.3032,0.2916,0.2903,0.2725,0.2689,0.3145,0.3145,0.3145,0.3145,0.3145,0,0.2192,0.2186,0.2204,0.2201,0.2212,0.2247,0.2289,0.2339,0.2455,0.2528,0.264,0.2725,0.2852,0.2939,0.2976,0.2987,0.3096,0.2954,0.2931,0.272,0.2684,0.3014,0.2998,0.3147,0.3147,0.3146,0.3146,0,0.2156,0.2168,0.2161,0.2187,0.2195,0.2206,0.2278,0.232,0.2437,0.2553,0.261,0.276,0.2847,0.2933,0.3055,0.3019,0.3066,0.3037,0.2746,0.2688,0.2841,0.2826,0.2931,0.2926,0.2923,0.2919,0.2917,0,0.2135,0.2129,0.2142,0.214,0.2146,0.2173,0.22,0.2302,0.2369,0.2552,0.2615,0.2742,0.2794,0.2889,0.2859,0.2876,0.2979,0.2651,0.2574,0.2862,0.283,0.2821,0.2811,0.2338,0.2331,0.2325,0.232,0,0.2096,0.2102,0.2098,0.2098,0.2108,0.2123,0.2179,0.2234,0.2367,0.2458,0.2568,0.2627,0.2681,0.2567,0.2563,0.2545,0.2628,0.2528,0.2958,0.2411,0.2304,0.2271,0.2282,0.2268,0.2273,0.2277,0.228,0.2282,0.2066,0.2054,0.2052,0.2042,0.2052,0.2062,0.2066,0.2132,0.2201,0.2291,0.2407,0.2387,0.2402,0.2248,0.2178,0.2109,0.2299,0.2207,0.2226,0.2251,0.2152,0.2043,0.1938,0.1941,0.1944,0.1946,0.1948,0,0.2015,0.2006,0.1996,0.1975,0.195,0.199,0.2039,0.2013,0.203,0.2085,0.2117,0.1922,0.1821,0.1841,0.1646,0.1629,0.163,0.1564,0.1558,0.161,0.1656,0.1529,0.1149,0.1147,0.1144,0.1142,0,0,0.1989,0.195,0.1936,0.1869,0.1862,0.1816,0.1826,0.1785,0.1788,0.1713,0.1658,0.1747,0.1793,0.1462,0.1403,0.1245,0.1423,0.1185,0.1827,0.1874,0.1917,0.2025,0.1885,0,0,0,0,0]},{"header":{"parameterUnit":"m.s-1","parameterCategory":2,"la1":30.2991,"la2":30.254,"lo1":-89.0895,"lo2":-89.0444,"dy":0.0017,"dx":0.0017,"nx":28,"ny":28,"refTime":"2025-05-14T21:00:00:Z","depth":"2","parameterNumber":3,"parameterNumberName":"V-component_of_CURRENTS"},"data":[0,0,0,0,0,0,0,0,0,0,0,0,0,0,0,0,0,0,0,0,0,0,0,0,0,0,0,0,0,0,0,0,0,0,0,0,0,0,0,0,0,0,0,0,0,0,0,0,0,0,0,0,0,0,0,0,0,0,0.0266,0.0266,0,0.0241,0.0241,0.024,0.0223,0.0223,0.0223,0.0223,0.0183,0.0182,0.0181,0,0,0,0,0,0,0,0,0,0,0,0,0,0.0267,0.0267,0.0266,0.0266,0.0266,0.0241,0.0241,0.024,0.0223,0.0223,0.0223,0.0223,0.0183,0.0182,0.0181,0,0,0,0,0,0,0,0,0,0,0,0,0,0.0256,0.0267,0.0266,0.0255,0.0253,0.0241,0.0241,0.024,0.0223,0.0223,0.0223,0.0223,0.0183,0.0182,0.0181,0.0173,0,0,0.0176,0.0175,0,0,0,0,0,0,0,0,0.0257,0.0256,0.0257,0.0255,0.0254,0.0236,0.0226,0.0217,0.0223,0.0234,0.0223,0.0223,0.0199,0.0197,0.0192,0.0171,0.0169,0.0176,0.0175,0.0174,0.0174,0,0,0,0,0,0,0,0.0257,0.0257,0.0256,0.0256,0.0255,0.0239,0.0238,0.0224,0.0217,0.0233,0.0232,0.023,0.0199,0.0193,0.019,0.0169,0.0176,0.0174,0.0173,0.0173,0.015,0.015,0,0,0,0,0,0,0.0264,0.0258,0.0256,0.0255,0.0256,0.024,0.0238,0.0241,0.0217,0.0214,0.023,0.023,0.0196,0.0192,0.0189,0.0198,0.0174,0.0173,0.0172,0.015,0.015,0.015,0,0,0,0,0,0,0.0264,0.0264,0.0257,0.0256,0.0254,0.024,0.0243,0.0241,0.0239,0.0215,0.0212,0.0232,0.0195,0.0191,0.0182,0.0195,0.0172,0.0171,0.0149,0.015,0.015,0.0203,0,0,0,0,0,0,0.0264,0.0264,0.0268,0.0256,0.0254,0.0258,0.0244,0.024,0.0238,0.0237,0.0215,0.0211,0.0195,0.0184,0.018,0.0193,0.0169,0.0149,0.0149,0.015,0.0201,0.0205,0.0209,0,0,0,0,0,0.0264,0.0274,0.0269,0.0269,0.0261,0.0258,0.0256,0.0245,0.0238,0.0242,0.0226,0.0212,0.0185,0.0183,0.0179,0.0191,0.0149,0.0149,0.015,0.0199,0.0204,0.0209,0,0,0,0,0,0,0.0276,0.0273,0.0267,0.0275,0.0269,0.0256,0.0257,0.0249,0.0239,0.0239,0.0215,0.021,0.0207,0.019,0.0188,0.0185,0.0165,0.0165,0.0204,0.0208,0.0212,0.0233,0.0168,0,0,0,0,0,0.028,0.0287,0.0279,0.0285,0.0284,0.0271,0.0268,0.0263,0.0252,0.0248,0.0232,0.0216,0.0205,0.02,0.0185,0.0184,0.0181,0.0188,0.0192,0.0195,0.0209,0.0227,0.0234,0.0152,0.0152,0.0152,0,0,0.0285,0.0285,0.0288,0.0288,0.0282,0.0287,0.0269,0.0271,0.0277,0.0245,0.0245,0.0228,0.0207,0.0206,0.0203,0.0195,0.0213,0.0196,0.02,0.0211,0.0229,0.0237,0.0244,0.0153,0.0153,0.0153,0,0,0.0302,0.0299,0.0311,0.031,0.0308,0.0302,0.0305,0.0296,0.0292,0.0289,0.027,0.0268,0.0242,0.0239,0.0232,0.025,0.0233,0.0237,0.0277,0.0294,0.0302,0.0308,0.0301,0.0306,0.0241,0.0241,0.0241,0,0.0307,0.0324,0.0314,0.0325,0.033,0.0312,0.0328,0.0321,0.031,0.0314,0.0296,0.0286,0.0263,0.0279,0.0279,0.0262,0.0258,0.0262,0.0302,0.0308,0.0314,0.0305,0.031,0.0243,0.0243,0.0243,0.0243,0,0.0334,0.0346,0.0354,0.0364,0.0366,0.0378,0.0369,0.0372,0.0363,0.0357,0.0367,0.0345,0.0346,0.0332,0.0307,0.0337,0.0315,0.0305,0.0295,0.0326,0.0313,0.0318,0.0247,0.0246,0.0245,0.0245,0,0,0.0351,0.0371,0.0373,0.0389,0.0391,0.04,0.0409,0.042,0.0441,0.0424,0.046,0.043,0.0426,0.0418,0.0396,0.0403,0.0426,0.0371,0.0371,0.0372,0.0449,0.0422,0.0424,0.0425,0.0426,0.0427,0.0418,0,0.0378,0.0415,0.0414,0.0447,0.0467,0.0458,0.0473,0.0479,0.048,0.0507,0.0495,0.0516,0.0457,0.0473,0.0468,0.0443,0.0443,0.0428,0.0411,0.041,0.0391,0.0431,0.041,0.04,0.0423,0.0423,0.0424,0,0.0407,0.0431,0.0471,0.0504,0.0511,0.0525,0.0558,0.0574,0.0596,0.0603,0.0619,0.0612,0.0622,0.0578,0.0551,0.0543,0.0502,0.0473,0.0473,0.0438,0.0394,0.0374,0.0407,0.0432,0.0431,0.0431,0.043,0,0.0435,0.0471,0.0509,0.0518,0.0547,0.0565,0.0584,0.0604,0.0645,0.0682,0.0727,0.0714,0.0739,0.069,0.0612,0.0592,0.0582,0.055,0.0485,0.0481,0.0456,0.0448,0.0544,0.0544,0.0544,0.0544,0.0545,0,0.0468,0.0497,0.0526,0.0547,0.0598,0.0605,0.0663,0.068,0.0741,0.0817,0.0791,0.0854,0.0772,0.075,0.0661,0.0587,0.0619,0.0506,0.049,0.047,0.0463,0.0485,0.0479,0.0544,0.0544,0.0544,0.0544,0,0.0492,0.051,0.0558,0.0598,0.0613,0.0653,0.0724,0.0777,0.0823,0.0933,0.0963,0.0975,0.0942,0.0839,0.0762,0.0663,0.0587,0.055,0.0517,0.0497,0.0458,0.0454,0.0488,0.0487,0.0487,0.0486,0.0486,0,0.0508,0.0536,0.0596,0.0632,0.065,0.0708,0.0758,0.0815,0.0895,0.1012,0.1089,0.1088,0.11,0.0955,0.0782,0.0628,0.06,0.0497,0.0459,0.0478,0.0459,0.0455,0.0452,0.0434,0.0433,0.0433,0.0432,0,0.054,0.056,0.0602,0.0677,0.0732,0.0805,0.0892,0.0976,0.1074,0.117,0.1289,0.1308,0.1169,0.1004,0.0774,0.0653,0.0517,0.0479,0.0536,0.0451,0.0427,0.0407,0.0406,0.0426,0.0427,0.0427,0.0427,0.0428,0.0562,0.0597,0.0653,0.0725,0.0795,0.0904,0.0991,0.1103,0.1245,0.1399,0.1406,0.1412,0.1221,0.0915,0.0712,0.048,0.0513,0.0407,0.0409,0.0413,0.0407,0.0384,0.0372,0.0373,0.0373,0.0373,0.0373,0,0.0586,0.0631,0.0698,0.079,0.0872,0.0913,0.1083,0.1175,0.1351,0.145,0.1526,0.1311,0.1128,0.0899,0.0568,0.0387,0.0354,0.0296,0.0302,0.031,0.0316,0.0305,0.0243,0.0243,0.0242,0.0241,0,0,0.0599,0.066,0.0696,0.0828,0.0906,0.1041,0.1153,0.1295,0.1397,0.1482,0.1475,0.1444,0.1186,0.091,0.0652,0.0457,0.0419,0.0397,0.0521,0.0566,0.0574,0.0398,0.0393,0,0,0,0,0]}],[{"header":{"parameterUnit":"m.s-1","parameterCategory":2,"la1":30.2991,"la2":30.254,"lo1":-89.0895,"lo2":-89.0444,"dy":0.0017,"dx":0.0017,"nx":28,"ny":28,"refTime":"2025-05-14T21:00:00:Z","depth":"4","parameterNumber":2,"parameterNumberName":"U-component_of_CURRENTS"},"data":[0,0,0,0,0,0,0,0,0,0,0,0,0,0,0,0,0,0,0,0,0,0,0,0,0,0,0,0,0,0,0,0,0,0,0,0,0,0,0,0,0,0,0,0,0,0,0,0,0,0,0,0,0,0,0,0,0,0,0.1409,0.1409,0,0.144,0.144,0.144,0.148,0.1481,0.1481,0.1482,0.1535,0.1536,0.1536,0,0,0,0,0,0,0,0,0,0,0,0,0,0.1378,0.1378,0.1409,0.1409,0.141,0.144,0.144,0.144,0.148,0.1481,0.1482,0.1483,0.1535,0.1536,0.1536,0,0,0,0,0,0,0,0,0,0,0,0,0,0.1397,0.1378,0.1409,0.1434,0.1437,0.144,0.144,0.144,0.148,0.1481,0.1482,0.1483,0.1534,0.1535,0.1536,0.1519,0,0,0.154,0.154,0,0,0,0,0,0,0,0,0.1396,0.1398,0.143,0.1433,0.1436,0.1459,0.1449,0.1468,0.1479,0.1462,0.1482,0.1484,0.1512,0.1514,0.1515,0.1522,0.1524,0.154,0.154,0.1541,0.1541,0,0,0,0,0,0,0,0.1394,0.1397,0.1419,0.143,0.1434,0.1442,0.1446,0.1452,0.1479,0.1463,0.1467,0.1472,0.1513,0.1514,0.1517,0.1525,0.154,0.154,0.1541,0.1542,0.1601,0.1602,0,0,0,0,0,0,0.1393,0.1395,0.1419,0.1421,0.142,0.1442,0.1446,0.1449,0.1478,0.1484,0.1471,0.1474,0.1512,0.1516,0.1519,0.1578,0.1541,0.1542,0.1542,0.16,0.1601,0.1602,0,0,0,0,0,0,0.1392,0.1394,0.1417,0.141,0.1414,0.1442,0.1444,0.1449,0.1483,0.1484,0.1491,0.1504,0.1513,0.1517,0.1552,0.1577,0.1542,0.1543,0.1599,0.16,0.1602,0.1646,0,0,0,0,0,0,0.1391,0.1394,0.1411,0.141,0.1414,0.1441,0.1443,0.1449,0.1483,0.1488,0.1514,0.1518,0.1514,0.155,0.1553,0.1578,0.1544,0.1598,0.16,0.1601,0.1643,0.1648,0.1653,0,0,0,0,0,0.1389,0.1401,0.1411,0.1415,0.1431,0.1443,0.1446,0.1468,0.1484,0.1503,0.1521,0.1519,0.1564,0.1552,0.1555,0.1581,0.1597,0.1599,0.1601,0.1641,0.1647,0.1653,0,0,0,0,0,0,0.1399,0.1407,0.1417,0.1433,0.1449,0.1451,0.1473,0.1485,0.1514,0.1529,0.153,0.1536,0.1579,0.1571,0.1558,0.1603,0.158,0.1583,0.1609,0.1616,0.1621,0.1643,0.1545,0,0,0,0,0,0.1407,0.1421,0.1429,0.1447,0.1457,0.1471,0.1486,0.15,0.1517,0.1532,0.155,0.1567,0.1582,0.1594,0.1608,0.1628,0.1635,0.1647,0.1652,0.1656,0.1677,0.1709,0.172,0.161,0.161,0.1609,0,0,0.1416,0.1424,0.1434,0.1451,0.1466,0.1482,0.1484,0.1514,0.1538,0.1532,0.1581,0.1593,0.1594,0.1623,0.164,0.1623,0.1688,0.1659,0.1663,0.1681,0.1713,0.1724,0.1733,0.1611,0.1611,0.1611,0,0,0.1429,0.145,0.1462,0.1478,0.1506,0.1513,0.153,0.155,0.1577,0.1608,0.1618,0.1648,0.1665,0.1675,0.1679,0.1719,0.172,0.1725,0.1763,0.1794,0.1804,0.1813,0.1821,0.183,0.172,0.172,0.172,0,0.1444,0.1455,0.1471,0.1486,0.1505,0.1531,0.155,0.1574,0.1608,0.1627,0.1634,0.168,0.1688,0.172,0.1742,0.1732,0.1747,0.1738,0.1802,0.1811,0.1819,0.1825,0.1834,0.1722,0.1722,0.1722,0.1721,0,0.1451,0.1476,0.1488,0.1514,0.1538,0.1562,0.1591,0.1627,0.1657,0.1672,0.1726,0.1741,0.1766,0.1773,0.1774,0.1834,0.1824,0.181,0.1788,0.1833,0.1836,0.1845,0.1725,0.1725,0.1724,0.1723,0,0,0.1442,0.1484,0.1493,0.151,0.1557,0.157,0.1621,0.1658,0.1687,0.1732,0.1771,0.1812,0.1831,0.1839,0.1848,0.1883,0.1948,0.1883,0.1883,0.1893,0.2014,0.1867,0.1862,0.1953,0.1956,0.1957,0.1988,0,0.1447,0.1475,0.15,0.1539,0.1554,0.1599,0.1635,0.1678,0.1716,0.1761,0.18,0.1843,0.1851,0.1877,0.1916,0.1948,0.1978,0.1941,0.1968,0.1969,0.1835,0.187,0.1964,0.1994,0.1996,0.1998,0.1999,0,0.1438,0.146,0.1496,0.1542,0.1555,0.1588,0.1649,0.1687,0.1753,0.1785,0.1842,0.1876,0.195,0.1946,0.2028,0.2009,0.2028,0.2043,0.2044,0.1903,0.1839,0.1943,0.2015,0.2014,0.2013,0.2011,0.201,0,0.1403,0.1455,0.1485,0.1502,0.1559,0.1595,0.1635,0.1698,0.173,0.182,0.1851,0.1929,0.1984,0.2031,0.208,0.2067,0.2157,0.2124,0.2003,0.1992,0.2097,0.2088,0.2184,0.2184,0.2183,0.2183,0.2183,0,0.1377,0.1404,0.1476,0.149,0.153,0.1582,0.1631,0.168,0.175,0.1781,0.1872,0.1907,0.2019,0.2076,0.2101,0.2079,0.217,0.2023,0.1996,0.2111,0.2103,0.2102,0.2093,0.2184,0.2184,0.2184,0.2184,0,0.1327,0.1375,0.1412,0.1486,0.1514,0.1547,0.1628,0.1647,0.1733,0.1783,0.1821,0.1925,0.1994,0.207,0.2149,0.2086,0.209,0.206,0.2183,0.2161,0.1895,0.1887,0.1907,0.1902,0.1898,0.1894,0.1892,0,0.1298,0.1314,0.1403,0.1428,0.1469,0.1527,0.1552,0.1635,0.1647,0.1766,0.1769,0.1887,0.1944,0.1936,0.2022,0.204,0.2022,0.1995,0.1944,0.1897,0.187,0.1869,0.1867,0.1885,0.1884,0.1883,0.1882,0,0.1243,0.1292,0.1323,0.1376,0.1416,0.1443,0.1488,0.148,0.1563,0.1666,0.1687,0.1726,0.1794,0.1847,0.1887,0.1894,0.1993,0.1952,0.196,0.1911,0.1871,0.1848,0.1851,0.1868,0.187,0.1871,0.1872,0,0.1211,0.122,0.1272,0.1304,0.1351,0.1335,0.1368,0.1377,0.1406,0.1522,0.1532,0.1657,0.1779,0.1771,0.1801,0.1804,0.1765,0.169,0.1711,0.1727,0.1653,0.1575,0.1467,0,0,0,0,0,0.1168,0.1163,0.119,0.1205,0.1244,0.1268,0.1307,0.1333,0.1409,0.1385,0.1451,0.1508,0.1553,0.1614,0.1581,0.1703,0.1766,0.1651,0.1689,0.1789,0.1806,0.1735,0,0,0,0,0,0,0.1136,0.1161,0.1159,0.1117,0.1106,0.1124,0.1141,0.1192,0.1172,0.1277,0.1318,0.1411,0.1488,0.1579,0.156,0.1575,0.156,0.1731,0.1726,0.178,0.1795,0.1808,0.1741,0,0,0,0,0]},{"header":{"parameterUnit":"m.s-1","parameterCategory":2,"la1":30.2991,"la2":30.254,"lo1":-89.0895,"lo2":-89.0444,"dy":0.0017,"dx":0.0017,"nx":28,"ny":28,"refTime":"2025-05-14T21:00:00:Z","depth":"4","parameterNumber":3,"parameterNumberName":"V-component_of_CURRENTS"},"data":[0,0,0,0,0,0,0,0,0,0,0,0,0,0,0,0,0,0,0,0,0,0,0,0,0,0,0,0,0,0,0,0,0,0,0,0,0,0,0,0,0,0,0,0,0,0,0,0,0,0,0,0,0,0,0,0,0,0,0.0081,0.008,0,0.0065,0.0065,0.0064,0.0056,0.0056,0.0056,0.0056,0.0031,0.0031,0.003,0,0,0,0,0,0,0,0,0,0,0,0,0,0.0081,0.0081,0.0081,0.008,0.008,0.0065,0.0065,0.0064,0.0056,0.0056,0.0056,0.0056,0.0032,0.0031,0.003,0,0,0,0,0,0,0,0,0,0,0,0,0,0.0074,0.0081,0.0081,0.0074,0.0074,0.0065,0.0065,0.0064,0.0056,0.0056,0.0056,0.0056,0.0032,0.0031,0.003,0.0024,0,0,0.0027,0.0027,0,0,0,0,0,0,0,0,0.0075,0.0074,0.0075,0.0075,0.0074,0.0062,0.0056,0.005,0.0056,0.0062,0.0056,0.0056,0.0041,0.0039,0.0036,0.0023,0.0022,0.0027,0.0026,0.0026,0.0026,0,0,0,0,0,0,0,0.0075,0.0075,0.0074,0.0075,0.0074,0.0065,0.0064,0.0055,0.0052,0.0062,0.0061,0.006,0.0041,0.0037,0.0036,0.0021,0.0027,0.0026,0.0025,0.0025,0.0015,0.0015,0,0,0,0,0,0,0.0079,0.0075,0.0075,0.0074,0.0075,0.0065,0.0064,0.0066,0.0052,0.005,0.006,0.0059,0.0039,0.0037,0.0035,0.0045,0.0026,0.0025,0.0024,0.0014,0.0015,0.0015,0,0,0,0,0,0,0.0079,0.0079,0.0075,0.0074,0.0073,0.0065,0.0067,0.0066,0.0066,0.005,0.0048,0.0062,0.0039,0.0036,0.0032,0.0043,0.0025,0.0024,0.0014,0.0014,0.0015,0.0054,0,0,0,0,0,0,0.0079,0.0079,0.0083,0.0075,0.0073,0.0076,0.0067,0.0065,0.0065,0.0065,0.0052,0.0049,0.0039,0.0034,0.0031,0.0042,0.0023,0.0014,0.0014,0.0015,0.0053,0.0056,0.0059,0,0,0,0,0,0.0079,0.0086,0.0083,0.0083,0.0078,0.0077,0.0075,0.0069,0.0065,0.0069,0.006,0.005,0.0036,0.0033,0.003,0.0041,0.0013,0.0014,0.0015,0.0051,0.0055,0.0059,0,0,0,0,0,0,0.0088,0.0086,0.0083,0.0088,0.0085,0.0075,0.0077,0.0072,0.0068,0.0069,0.0053,0.005,0.0051,0.0039,0.0037,0.0039,0.0023,0.0023,0.0052,0.0056,0.0059,0.0074,0.0022,0,0,0,0,0,0.0092,0.0097,0.0091,0.0096,0.0095,0.0087,0.0086,0.0083,0.0077,0.0075,0.0066,0.0056,0.005,0.0048,0.0039,0.004,0.0031,0.0045,0.0048,0.0051,0.0061,0.0061,0.0065,0.0017,0.0017,0.0017,0,0,0.0095,0.0096,0.0098,0.0098,0.0095,0.01,0.0086,0.0089,0.0096,0.0073,0.0079,0.0066,0.0052,0.0054,0.0054,0.0047,0.0057,0.0052,0.0054,0.0063,0.0062,0.0067,0.0071,0.0018,0.0018,0.0018,0,0,0.0108,0.0107,0.0116,0.0116,0.0116,0.0112,0.0115,0.011,0.011,0.0112,0.0098,0.0097,0.0082,0.0081,0.0077,0.0092,0.0072,0.0084,0.0115,0.0115,0.0119,0.0123,0.0107,0.0109,0.0087,0.0088,0.0088,0,0.0113,0.0125,0.0118,0.0127,0.0133,0.0121,0.0134,0.0131,0.0126,0.0132,0.0119,0.0113,0.0099,0.0111,0.0114,0.0102,0.009,0.0102,0.012,0.0124,0.0127,0.011,0.0112,0.0089,0.0089,0.0089,0.0089,0,0.0132,0.0143,0.0148,0.0158,0.0162,0.0172,0.0169,0.0175,0.0172,0.0169,0.0178,0.0161,0.0162,0.0153,0.0137,0.0153,0.0133,0.0123,0.0113,0.0134,0.0115,0.0116,0.0092,0.0092,0.0091,0.0091,0,0,0.0143,0.016,0.0163,0.0178,0.0182,0.0191,0.0204,0.0216,0.0234,0.0223,0.0247,0.0231,0.0224,0.0219,0.0201,0.0198,0.0201,0.0171,0.017,0.016,0.0189,0.0175,0.0175,0.0193,0.0194,0.0194,0.0163,0,0.0163,0.0192,0.0194,0.0224,0.0239,0.0239,0.0256,0.0265,0.0267,0.0284,0.0274,0.0286,0.0248,0.0256,0.0246,0.0215,0.0207,0.021,0.0166,0.0165,0.0155,0.0177,0.0196,0.0164,0.0164,0.0164,0.0164,0,0.0182,0.0202,0.0235,0.0268,0.0276,0.0291,0.0325,0.0341,0.0355,0.0358,0.0365,0.0353,0.0352,0.032,0.0281,0.0282,0.0241,0.0212,0.021,0.0188,0.0154,0.014,0.0166,0.0166,0.0166,0.0166,0.0166,0,0.0199,0.0233,0.0265,0.0274,0.0304,0.0326,0.0347,0.0365,0.0395,0.0415,0.0437,0.042,0.0429,0.0378,0.031,0.0298,0.0262,0.0238,0.0187,0.0184,0.0187,0.0184,0.0217,0.0217,0.0218,0.0218,0.0218,0,0.022,0.0246,0.0279,0.0296,0.0344,0.0357,0.0407,0.0424,0.0462,0.0507,0.0484,0.0511,0.0446,0.0414,0.0337,0.0266,0.0282,0.0201,0.0184,0.0202,0.02,0.0187,0.0184,0.0216,0.0217,0.0217,0.0217,0,0.0231,0.025,0.0293,0.0335,0.0353,0.0391,0.0454,0.0492,0.052,0.0582,0.0598,0.0589,0.0548,0.047,0.0391,0.0313,0.0239,0.021,0.0234,0.0217,0.0151,0.015,0.0151,0.0151,0.015,0.015,0.015,0,0.0238,0.0261,0.0322,0.0355,0.0377,0.0434,0.0476,0.052,0.0564,0.0627,0.066,0.0651,0.0628,0.0508,0.041,0.0273,0.0247,0.0194,0.0173,0.0165,0.0148,0.0148,0.0148,0.0149,0.0149,0.0149,0.0148,0,0.0253,0.0276,0.0312,0.038,0.0432,0.0495,0.0558,0.0595,0.0656,0.0683,0.0721,0.0673,0.0629,0.052,0.042,0.0315,0.0219,0.0188,0.0188,0.0168,0.0162,0.0145,0.0146,0.0147,0.0147,0.0147,0.0147,0,0.0265,0.0292,0.0341,0.0402,0.0471,0.054,0.0573,0.0631,0.0679,0.0743,0.0752,0.071,0.0688,0.0543,0.0446,0.0348,0.031,0.0251,0.0247,0.0247,0.0277,0.0283,0.0302,0,0,0,0,0,0.0274,0.0303,0.036,0.0429,0.05,0.0542,0.0622,0.0651,0.0706,0.074,0.0751,0.0712,0.0596,0.0544,0.0445,0.0415,0.0277,0.029,0.0202,0.0138,0.014,0.0157,0,0,0,0,0,0,0.0279,0.0326,0.0354,0.044,0.0491,0.0573,0.0626,0.0667,0.0682,0.0723,0.0666,0.0659,0.0544,0.0655,0.0436,0.0408,0.0329,0.0244,0.0241,0.0137,0.0139,0.014,0.0158,0,0,0,0,0]}]]